User: anonymous   Login
Location: Myra
(43.4160°N, 88.0960°W)
Time: 04:58:03
(UTC-06:00)
Language:

SL-8 R/B - Orbit

View from above orbital plane
View from above orbital plane
View from above satellite
View from above satellite

Ground track
Ground track

The orbit data is extracted from the following two-line orbital elements,

1 33066U 08031G   17016.52763330 -.00000060  00000-0  22651-4 0  9991
2 33066  48.4443  99.7627 0008065 198.7646 244.3035 14.69506851460452
Epoch (UTC): 16 January 2017 12:39:47
Eccentricity: 0.0008065
inclination: 48.4443°
perigee height: 657 km
apogee height: 668 km
right ascension of ascending node: 99.7627°
argument of perigee: 198.7646°
revolutions per day: 14.69506851
mean anomaly at epoch: 244.3035°
orbit number at epoch: 46045

The dashed part of the orbit path shows where the satellite is in the earth's shadow,  

DLR